Location: Observatory
(52.1446°N, 0.4624°W)
Time: 18:52:21
(UTC+00:00)

ISS - Pass Details

Date: 01 December 2021
Orbit: 417 x 422 km, 51.6° (Epoch: 06 December)

Event Time Altitude Azimuth Distance (km) Brightness Sun altitude
Rises 19:17:47 0° 282° (WNW) 2,380 1.2 -30.3°
Reaches altitude 10° 19:20:03 10° 271° (W) 1,512 0.0 -30.7°
Enters shadow 19:20:39 14° 265° (W) 1,302 -0.5 -30.8°
